| time (UTC) | temp F | wind direction | speed MPH | gust MPH | rain 1hr in | rain 24hr in | rain mn in | humidity % | barometer mb |
| 20260507114532 | 39 | 269 | 0.0 | 2.0 | 0.00 | 0.00 | 0.00 | 85 | 1012.5 |
| 20260507113029 | 39 | 269 | 0.0 | 1.0 | 0.00 | 0.00 | 0.00 | 85 | 1012.6 |
| 20260507111525 | 38 | 269 | 1.0 | 2.0 | 0.00 | 0.00 | 0.00 | 85 | 1012.5 |
| 20260507110023 | 38 | 269 | 0.0 | 2.0 | 0.00 | 0.00 | 0.00 | 85 | 1012.4 |
| 20260507104623 | 38 | 269 | 0.0 | 1.0 | 0.00 | 0.00 | 0.00 | 85 | 1012.3 |
| 20260507103022 | 38 | 265 | 0.0 | 2.0 | 0.00 | 0.00 | 0.00 | 84 | 1012.2 |
| 20260507101522 | 38 | 276 | 0.0 | 0.0 | 0.00 | 0.00 | 0.00 | 84 | 1012.1 |
| 20260507100030 | 38 | 276 | 0.0 | 1.0 | 0.00 | 0.00 | 0.00 | 84 | 1012.3 |
| 20260507094522 | 39 | 222 | 0.0 | 0.0 | 0.00 | 0.00 | 0.00 | 84 | 1012.2 |
| 20260507093020 | 39 | 222 | 0.0 | 1.0 | 0.00 | 0.00 | 0.00 | 84 | 1012.2 |
| 20260507091520 | 39 | 222 | 0.0 | 2.0 | 0.00 | 0.00 | 0.00 | 84 | 1012.1 |
| 20260507090022 | 38 | 222 | 1.0 | 2.0 | 0.00 | 0.00 | 0.00 | 85 | 1012.3 |
| 20260507084518 | 38 | 222 | 0.0 | 1.0 | 0.00 | 0.00 | 0.00 | 85 | 1012.3 |
| 20260507083017 | 38 | 222 | 0.0 | 3.0 | 0.00 | 0.00 | 0.00 | 85 | 1012.2 |
| 20260507081532 | 38 | 299 | 0.0 | 2.0 | 0.00 | 0.00 | 0.00 | 84 | 1012.3 |
| 20260507080012 | 38 | 299 | 1.0 | 3.0 | 0.00 | 0.00 | 0.00 | 83 | 1012.3 |
| 20260507074523 | 38 | 299 | 0.0 | 2.0 | 0.00 | 0.00 | 0.00 | 84 | 1012.4 |
| 20260507073010 | 38 | 298 | 0.0 | 2.0 | 0.00 | 0.00 | 0.00 | 84 | 1012.4 |
| 20260507071508 | 38 | 298 | 0.0 | 3.0 | 0.00 | 0.00 | 0.00 | 82 | 1012.4 |
| 20260507070010 | 38 | 298 | 0.0 | 3.0 | 0.00 | 0.00 | 0.00 | 81 | 1012.5 |
| 20260507064506 | 38 | 298 | 0.0 | 1.0 | 0.00 | 0.00 | 0.00 | 80 | 1012.5 |
| 20260507063100 | 39 | 298 | 0.0 | 2.0 | 0.00 | 0.00 | 0.00 | 80 | 1012.5 |
| 20260507061556 | 39 | 298 | 0.0 | 2.0 | 0.00 | 0.00 | 0.00 | 78 | 1012.6 |
| 20260507060059 | 40 | 29 | 0.0 | 2.0 | 0.00 | 0.00 | 0.00 | 77 | 1012.6 |
| 20260507054633 | 41 | 29 | 0.0 | 3.0 | 0.00 | 0.00 | 0.00 | 75 | 1012.6 |
| 20260507053052 | 42 | 122 | 0.0 | 1.0 | 0.00 | 0.00 | 0.00 | 74 | 1012.6 |
| 20260507051548 | 42 | 122 | 0.0 | 2.0 | 0.00 | 0.00 | 0.00 | 75 | 1012.4 |
| 20260507050053 | 42 | 122 | 0.0 | 2.0 | 0.00 | 0.00 | 0.00 | 74 | 1012.5 |
| 20260507044549 | 42 | 122 | 1.0 | 3.0 | 0.00 | 0.00 | 0.00 | 72 | 1012.5 |
| 20260507043039 | 43 | 122 | 3.0 | 4.0 | 0.00 | 0.00 | 0.00 | 71 | 1012.6 |
| 20260507041540 | 44 | 121 | 3.0 | 6.0 | 0.00 | 0.00 | 0.00 | 68 | 1012.6 |
| 20260507040035 | 46 | 91 | 1.0 | 3.0 | 0.00 | 0.00 | 0.00 | 64 | 1012.6 |
| 20260507034532 | 47 | 90 | 1.0 | 6.0 | 0.00 | 0.00 | 0.00 | 61 | 1012.8 |
| 20260507033031 | 48 | 304 | 0.0 | 6.0 | 0.00 | 0.00 | 0.00 | 56 | 1012.8 |
| 20260507031530 | 48 | 270 | 3.0 | 8.0 | 0.00 | 0.00 | 0.00 | 56 | 1013.0 |
| 20260507030030 | 48 | 309 | 1.0 | 5.0 | 0.00 | 0.00 | 0.00 | 61 | 1013.0 |
| 20260507024532 | 48 | 285 | 0.0 | 4.0 | 0.00 | 0.00 | 0.00 | 59 | 1012.8 |
| 20260507023029 | 49 | 331 | 5.0 | 9.0 | 0.00 | 0.00 | 0.00 | 57 | 1012.6 |
| 20260507021527 | 50 | 287 | 7.0 | 12.0 | 0.00 | 0.00 | 0.00 | 50 | 1012.5 |
| 20260507020027 | 50 | 295 | 9.0 | 17.0 | 0.00 | 0.00 | 0.00 | 49 | 1012.4 |
| 20260507014541 | 51 | 274 | 2.0 | 4.0 | 0.00 | 0.00 | 0.00 | 47 | 1012.1 |
| 20260507013026 | 51 | 263 | 4.0 | 10.0 | 0.00 | 0.00 | 0.00 | 44 | 1012.0 |
| 20260507011528 | 51 | 264 | 3.0 | 10.0 | 0.00 | 0.00 | 0.00 | 48 | 1011.8 |
| 20260507010027 | 51 | 242 | 2.0 | 4.0 | 0.00 | 0.00 | 0.00 | 48 | 1011.7 |
| 20260507004525 | 51 | 242 | 2.0 | 4.0 | 0.00 | 0.00 | 0.00 | 47 | 1011.8 |
| 20260507003024 | 51 | 242 | 2.0 | 5.0 | 0.00 | 0.00 | 0.00 | 47 | 1011.5 |
| 20260507001527 | 51 | 234 | 2.0 | 4.0 | 0.00 | 0.00 | 0.00 | 47 | 1011.5 |
| 20260507000032 | 51 | 231 | 3.0 | 6.0 | 0.00 | 0.00 | 0.00 | 45 | 1011.4 |
| 20260506234523 | 52 | 252 | 0.0 | 7.0 | 0.00 | 0.00 | 0.00 | 46 | 1011.5 |
| 20260506233022 | 52 | 265 | 1.0 | 8.0 | 0.00 | 0.00 | 0.00 | 46 | 1011.5 |
| 20260506231521 | 52 | 246 | 3.0 | 9.0 | 0.00 | 0.00 | 0.00 | 44 | 1011.4 |
| 20260506230021 | 52 | 250 | 3.0 | 10.0 | 0.00 | 0.00 | 0.00 | 44 | 1011.5 |
| 20260506224521 | 52 | 234 | 5.0 | 10.0 | 0.00 | 0.00 | 0.00 | 44 | 1011.6 |
| 20260506223020 | 52 | 259 | 4.0 | 12.0 | 0.00 | 0.00 | 0.00 | 44 | 1011.7 |
| 20260506221520 | 52 | 273 | 7.0 | 12.0 | 0.00 | 0.00 | 0.00 | 44 | 1011.7 |
| 20260506220023 | 52 | 269 | 4.0 | 12.0 | 0.00 | 0.00 | 0.00 | 44 | 1011.6 |
| 20260506214518 | 52 | 244 | 7.0 | 16.0 | 0.00 | 0.00 | 0.00 | 44 | 1011.5 |
| 20260506213017 | 52 | 275 | 7.0 | 14.0 | 0.00 | 0.00 | 0.00 | 43 | 1011.6 |
| 20260506211518 | 53 | 242 | 9.0 | 16.0 | 0.00 | 0.00 | 0.00 | 43 | 1011.6 |
| 20260506210015 | 53 | 242 | 5.0 | 13.0 | 0.00 | 0.00 | 0.00 | 45 | 1011.5 |
| 20260506204520 | 53 | 257 | 8.0 | 15.0 | 0.00 | 0.00 | 0.00 | 42 | 1011.6 |
| 20260506203012 | 53 | 263 | 5.0 | 11.0 | 0.00 | 0.00 | 0.00 | 45 | 1011.6 |
| 20260506201511 | 52 | 307 | 2.0 | 11.0 | 0.00 | 0.00 | 0.00 | 45 | 1011.7 |
| 20260506200007 | 51 | 277 | 5.0 | 11.0 | 0.00 | 0.00 | 0.00 | 46 | 1011.9 |
| 20260506194512 | 51 | 249 | 3.0 | 9.0 | 0.00 | 0.00 | 0.00 | 49 | 1012.0 |
| 20260506193004 | 51 | 345 | 2.0 | 13.0 | 0.00 | 0.00 | 0.00 | 47 | 1012.1 |
| 20260506191503 | 51 | 258 | 4.0 | 13.0 | 0.00 | 0.00 | 0.00 | 47 | 1012.1 |
| 20260506190002 | 50 | 227 | 7.0 | 17.0 | 0.00 | 0.00 | 0.00 | 46 | 1012.2 |
| 20260506184600 | 50 | 258 | 6.0 | 15.0 | 0.00 | 0.00 | 0.00 | 47 | 1012.3 |
| 20260506183059 | 50 | 298 | 4.0 | 10.0 | 0.00 | 0.00 | 0.00 | 49 | 1012.4 |
| 20260506181558 | 50 | 287 | 3.0 | 10.0 | 0.00 | 0.00 | 0.00 | 48 | 1012.3 |
| 20260506180105 | 49 | 284 | 1.0 | 9.0 | 0.00 | 0.00 | 0.00 | 50 | 1012.4 |
| 20260506174556 | 49 | 18 | 4.0 | 10.0 | 0.00 | 0.00 | 0.00 | 49 | 1012.6 |
| 20260506173058 | 49 | 360 | 6.0 | 11.0 | 0.00 | 0.00 | 0.00 | 49 | 1012.6 |
| 20260506171558 | 49 | 340 | 5.0 | 11.0 | 0.00 | 0.00 | 0.00 | 49 | 1012.5 |
| 20260506170104 | 49 | 334 | 3.0 | 9.0 | 0.00 | 0.00 | 0.00 | 53 | 1012.7 |
| 20260506164553 | 49 | 347 | 4.0 | 10.0 | 0.00 | 0.00 | 0.00 | 51 | 1012.8 |
| 20260506163107 | 48 | 243 | 2.0 | 8.0 | 0.00 | 0.00 | 0.00 | 55 | 1013.0 |
| 20260506161545 | 47 | 351 | 6.0 | 10.0 | 0.00 | 0.00 | 0.00 | 60 | 1013.0 |
| 20260506160042 | 47 | 274 | 3.0 | 8.0 | 0.00 | 0.00 | 0.00 | 61 | 1012.9 |
| 20260506154602 | 47 | 268 | 6.0 | 10.0 | 0.00 | 0.00 | 0.00 | 63 | 1013.1 |
| 20260506153049 | 46 | 5 | 6.0 | 9.0 | 0.00 | 0.00 | 0.00 | 62 | 1013.0 |
| 20260506151536 | 46 | 5 | 4.0 | 11.0 | 0.00 | 0.00 | 0.00 | 64 | 1013.0 |
| 20260506150034 | 45 | 322 | 4.0 | 10.0 | 0.00 | 0.00 | 0.00 | 64 | 1013.0 |
| 20260506144531 | 45 | 333 | 6.0 | 12.0 | 0.00 | 0.00 | 0.00 | 64 | 1012.9 |
| 20260506143035 | 45 | 41 | 7.0 | 14.0 | 0.00 | 0.00 | 0.00 | 63 | 1012.5 |
| 20260506141529 | 44 | 53 | 4.0 | 12.0 | 0.00 | 0.00 | 0.00 | 66 | 1012.5 |
| 20260506140026 | 44 | 5 | 5.0 | 11.0 | 0.00 | 0.00 | 0.00 | 67 | 1012.5 |
| 20260506134524 | 44 | 344 | 7.0 | 13.0 | 0.00 | 0.00 | 0.00 | 67 | 1012.4 |
| 20260506133023 | 44 | 18 | 7.0 | 14.0 | 0.00 | 0.00 | 0.00 | 67 | 1012.3 |
| 20260506131520 | 43 | 360 | 5.0 | 10.0 | 0.00 | 0.00 | 0.00 | 69 | 1012.1 |
| 20260506130022 | 42 | 11 | 3.0 | 10.0 | 0.00 | 0.00 | 0.00 | 70 | 1012.0 |
| 20260506124518 | 42 | 346 | 4.0 | 10.0 | 0.00 | 0.00 | 0.00 | 70 | 1011.9 |
| 20260506123015 | 42 | 63 | 3.0 | 10.0 | 0.00 | 0.00 | 0.00 | 74 | 1011.7 |
| 20260506121512 | 41 | 14 | 3.0 | 9.0 | 0.00 | 0.00 | 0.00 | 75 | 1011.5 |
| 20260506120012 | 40 | 48 | 5.0 | 10.0 | 0.00 | 0.00 | 0.00 | 75 | 1011.2 |